DECAYED
Showing default

NARSSCUBE-2, 44415 (Decayed)

Orbit data source: Space-Track

NARSSCUBE-2, 44415 was a payload satellite owned by EgSA (EG) in LEO that was launched on Wed, 17 Apr 2019 UTC via an FALCON 9 launch vehicle from the Wallops Island (WLPIS). Payload-class satellites include a variety of spacecraft equipped with specific instruments for various scientific and technological missions. These include communications satellites like Starlink; space stations such as the ISS; scientific satellites like the Hubble; Earth observation satellites from companies like Planet Labs, Umbra, and HawkEye 360; GPS; miniature CubeSats for education and research; and military/defense satellites.

Not visible in the next 10 days
Identifier
44415, 2019-022E
Orbit
Decayed
Country
Flag of UnknownUnknown / EGYP
Related business
Manufacturer
EgSA
Mission
Decayed Civil Technology
Bus & Motor
CUBESAT 1U, Unknown motor
Mass
1 kg wet, 1 kg dry
Launch date (UTC)
2019-04-17 (6 years ago)
Launch vehicle
FALCON 9
Launch site
Wallops Island (WLPIS)
Object type
Payload
Rocket body
Debris
Shape & HBR
Box, Unknown HBR
Radar Cross Section
0.015 m², Small (<0.1 m²)

Expand to show TLE details & history
Last TLE update: 1 year ago

TLE from 1 year ago
0 NARSSCUBE-2
1 44415U 19022E   24092.07861115  .12359287  12624-4  24570-3 0  9995
2 44415  51.6010 111.7418 0002972 304.4343  55.6405 16.47098938261589
Epoch: 2024-04-01T01:53Z
TLE epoch observation values (Epoch: 2024-04-01T01:53:12.003Z)
Latitude
-0.00002°
Longitude
-106.48225°
Altitude
146.66 km
Speed
7.82 km/s
True Right ascension
07h 26m 58s
True Declination
0° 00' 00"
Sunlit
Object was in daylight at epoch
Visualization orbit readout
Latitude
Unknown
Longitude
Unknown
Altitude
Unknown
Speed
Unknown
Apparent Right ascension
Unknown
Apparent Declination
Unknown
Sunlit
N/A
Visualization observer readout
Local Sidereal Time
06:52:10
Azimuth
Unknown
Elevation
Unknown
Doppler factor
Unknown
Orbital elements
Apogee altitude
149.461 km
Perigee altitude
145.582 km
Semi-major axis
6,525.659 km
Eccentricity
0.0003
Inclination
51.601°
RAAN
111.7418°
Arg. of periapsis
304.4343°
True anomaly
55.66862°
Mean anomaly
55.6405°
Eccentric anomaly
55.65456°
Mean motion
4.11724 °/min
Orbital period
87.44 mins
BSTAR
0.0002457
Loading maneuver chart data...
Computing Atmospheric mass density...

Documentation

Showing up to 5 results
|